Time,TemperatureF,DewpointF,PressureIn,WindDirection,WindDirectionDegrees,WindSpeedMPH,WindSpeedGustMPH,Humidity,HourlyPrecipIn,Conditions,Clouds,dailyrainin,SoftwareType,DateUTC
2013-02-10 00:01:00,56.0,52.0,30.22,NNE,33,4.0,5.0,84,-99.99,,,-99.99,,2013-02-10 05:01:00,
2013-02-10 00:11:00,56.0,51.0,30.22,NE,37,4.0,6.0,85,-99.99,,,-99.99,,2013-02-10 05:11:00,
2013-02-10 00:23:00,56.0,51.0,30.22,NE,37,4.0,6.0,85,-99.99,,,-99.99,,2013-02-10 05:23:00,
2013-02-10 00:32:00,56.0,51.0,30.22,NE,37,4.0,6.0,85,-99.99,,,-99.99,,2013-02-10 05:32:00,
2013-02-10 00:42:00,55.0,51.0,30.22,NE,35,4.0,6.0,87,-99.99,,,-99.99,,2013-02-10 05:42:00,
2013-02-10 00:52:00,55.0,51.0,30.22,NE,35,4.0,6.0,87,-99.99,,,-99.99,,2013-02-10 05:52:00,
2013-02-10 01:02:00,55.0,52.0,30.22,NNE,29,4.0,4.0,88,-99.99,,,-99.99,,2013-02-10 06:02:00,
2013-02-10 01:11:00,55.0,51.0,30.22,NNE,30,4.0,5.0,88,-99.99,,,-99.99,,2013-02-10 06:11:00,
2013-02-10 01:21:00,55.0,51.0,30.22,NNE,30,4.0,5.0,88,-99.99,,,-99.99,,2013-02-10 06:21:00,
2013-02-10 01:32:00,54.0,50.0,30.22,NNE,28,5.0,6.0,89,-99.99,,,-99.99,,2013-02-10 06:32:00,
2013-02-10 01:42:00,55.0,52.0,30.21,NE,42,4.0,6.0,90,-99.99,,,-99.99,,2013-02-10 06:42:00,
2013-02-10 01:52:00,56.0,53.0,30.21,NE,48,5.0,8.0,89,-99.99,,,-99.99,,2013-02-10 06:52:00,
2013-02-10 02:01:00,56.0,53.0,30.21,NE,48,5.0,8.0,89,-99.99,,,-99.99,,2013-02-10 07:01:00,
2013-02-10 02:11:00,57.0,53.0,30.21,NE,56,4.0,7.0,88,-99.99,,,-99.99,,2013-02-10 07:11:00,
2013-02-10 02:21:00,57.0,53.0,30.21,NE,56,4.0,7.0,88,-99.99,,,-99.99,,2013-02-10 07:21:00,
2013-02-10 02:32:00,57.0,53.0,30.21,NE,49,4.0,6.0,87,-99.99,,,-99.99,,2013-02-10 07:32:00,
2013-02-10 02:42:00,56.0,52.0,30.21,NE,51,5.0,7.0,88,-99.99,,,-99.99,,2013-02-10 07:42:00,
2013-02-10 02:52:00,56.0,52.0,30.21,NE,51,5.0,7.0,88,-99.99,,,-99.99,,2013-02-10 07:52:00,
2013-02-10 03:01:00,56.0,53.0,30.21,ENE,59,4.0,7.0,89,-99.99,,,-99.99,,2013-02-10 08:01:00,
2013-02-10 03:11:00,57.0,54.0,30.20,ENE,62,5.0,7.0,89,-99.99,,,-99.99,,2013-02-10 08:11:00,
2013-02-10 03:21:00,57.0,54.0,30.20,ENE,62,5.0,7.0,89,-99.99,,,-99.99,,2013-02-10 08:21:00,
2013-02-10 03:32:00,58.0,54.0,30.20,NE,55,6.0,10.0,87,-99.99,,,-99.99,,2013-02-10 08:32:00,
2013-02-10 03:43:00,58.0,54.0,30.20,NE,55,6.0,10.0,87,-99.99,,,-99.99,,2013-02-10 08:43:00,
2013-02-10 03:52:00,58.0,54.0,30.20,ENE,58,5.0,7.0,86,-99.99,,,-99.99,,2013-02-10 08:52:00,
2013-02-10 04:02:00,58.0,54.0,30.20,ENE,58,5.0,7.0,86,-99.99,,,-99.99,,2013-02-10 09:02:00,
2013-02-10 04:11:00,58.0,54.0,30.20,NE,52,5.0,9.0,86,-99.99,,,-99.99,,2013-02-10 09:11:00,
2013-02-10 04:21:00,58.0,54.0,30.20,NE,52,5.0,9.0,86,-99.99,,,-99.99,,2013-02-10 09:21:00,
2013-02-10 04:32:00,57.0,53.0,30.20,NE,53,5.0,6.0,86,-99.99,,,-99.99,,2013-02-10 09:32:00,
2013-02-10 04:42:00,57.0,53.0,30.20,NE,55,5.0,7.0,86,-99.99,,,-99.99,,2013-02-10 09:42:00,
2013-02-10 04:52:00,57.0,53.0,30.20,NE,55,5.0,7.0,86,-99.99,,,-99.99,,2013-02-10 09:52:00,
2013-02-10 05:01:00,57.0,53.0,30.20,NE,54,5.0,8.0,86,-99.99,,,-99.99,,2013-02-10 10:01:00,
2013-02-10 05:11:00,57.0,53.0,30.20,NE,54,5.0,8.0,86,-99.99,,,-99.99,,2013-02-10 10:11:00,
2013-02-10 05:21:00,57.0,53.0,30.20,NE,54,5.0,8.0,86,-99.99,,,-99.99,,2013-02-10 10:21:00,
2013-02-10 05:32:00,57.0,53.0,30.20,ENE,57,5.0,7.0,86,-99.99,,,-99.99,,2013-02-10 10:32:00,
2013-02-10 05:42:00,57.0,53.0,30.20,ENE,61,4.0,8.0,86,-99.99,,,-99.99,,2013-02-10 10:42:00,
2013-02-10 05:52:00,57.0,53.0,30.20,ENE,61,4.0,8.0,86,-99.99,,,-99.99,,2013-02-10 10:52:00,
2013-02-10 06:01:00,57.0,53.0,30.20,ENE,64,5.0,8.0,86,-99.99,,,-99.99,,2013-02-10 11:01:00,
2013-02-10 06:11:00,57.0,53.0,30.20,ENE,67,5.0,8.0,86,-99.99,,,-99.99,,2013-02-10 11:11:00,
2013-02-10 06:22:00,57.0,53.0,30.20,ENE,67,5.0,8.0,86,-99.99,,,-99.99,,2013-02-10 11:22:00,
2013-02-10 06:32:00,58.0,53.0,30.21,ENE,67,5.0,8.0,85,-99.99,,,-99.99,,2013-02-10 11:32:00,
2013-02-10 06:42:00,58.0,53.0,30.21,ENE,67,5.0,8.0,85,-99.99,,,-99.99,,2013-02-10 11:42:00,
2013-02-10 06:52:00,58.0,53.0,30.21,ENE,69,5.0,8.0,85,-99.99,,,-99.99,,2013-02-10 11:52:00,
2013-02-10 07:02:00,58.0,53.0,30.22,ENE,65,5.0,7.0,84,-99.99,,,-99.99,,2013-02-10 12:02:00,
2013-02-10 07:12:00,58.0,53.0,30.22,ENE,65,5.0,7.0,84,-99.99,,,-99.99,,2013-02-10 12:12:00,
2013-02-10 07:22:00,58.0,53.0,30.22,ENE,65,5.0,7.0,84,-99.99,,,-99.99,,2013-02-10 12:22:00,
2013-02-10 07:32:00,58.0,53.0,30.22,ENE,68,5.0,7.0,85,-99.99,,,-99.99,,2013-02-10 12:32:00,
2013-02-10 07:42:00,58.0,53.0,30.22,ENE,68,5.0,8.0,85,-99.99,,,-99.99,,2013-02-10 12:42:00,
2013-02-10 07:52:00,58.0,53.0,30.22,ENE,68,5.0,8.0,85,-99.99,,,-99.99,,2013-02-10 12:52:00,
2013-02-10 08:02:00,58.0,54.0,30.23,ENE,73,6.0,9.0,85,-99.99,,,-99.99,,2013-02-10 13:02:00,
2013-02-10 08:12:00,59.0,54.0,30.23,ENE,75,5.0,7.0,83,-99.99,,,-99.99,,2013-02-10 13:12:00,
2013-02-10 08:21:00,59.0,54.0,30.23,ENE,75,5.0,7.0,83,-99.99,,,-99.99,,2013-02-10 13:21:00,
2013-02-10 08:31:00,61.0,55.0,30.24,East,79,6.0,10.0,79,-99.99,,,-99.99,,2013-02-10 13:31:00,
2013-02-10 08:42:00,62.0,55.0,30.25,East,81,6.0,11.0,76,-99.99,,,-99.99,,2013-02-10 13:42:00,
2013-02-10 08:52:00,62.0,55.0,30.25,East,81,6.0,11.0,76,-99.99,,,-99.99,,2013-02-10 13:52:00,
2013-02-10 09:02:00,64.0,55.0,30.26,East,82,7.0,11.0,73,-99.99,,,-99.99,,2013-02-10 14:02:00,
2013-02-10 09:11:00,65.0,55.0,30.27,East,80,7.0,11.0,70,-99.99,,,-99.99,,2013-02-10 14:11:00,
2013-02-10 09:22:00,65.0,55.0,30.27,East,80,7.0,11.0,70,-99.99,,,-99.99,,2013-02-10 14:22:00,
2013-02-10 09:32:00,65.0,55.0,30.27,East,80,7.0,11.0,70,-99.99,,,-99.99,,2013-02-10 14:32:00,
2013-02-10 09:42:00,68.0,56.0,30.28,East,83,9.0,14.0,64,-99.99,,,-99.99,,2013-02-10 14:42:00,
2013-02-10 09:52:00,68.0,56.0,30.28,East,83,9.0,14.0,64,-99.99,,,-99.99,,2013-02-10 14:52:00,
2013-02-10 10:02:00,69.0,56.0,30.28,East,88,11.0,19.0,61,-99.99,,,-99.99,,2013-02-10 15:02:00,
2013-02-10 10:11:00,70.0,55.0,30.29,East,85,12.0,18.0,58,-99.99,,,-99.99,,2013-02-10 15:11:00,
2013-02-10 10:22:00,70.0,55.0,30.29,East,85,12.0,18.0,58,-99.99,,,-99.99,,2013-02-10 15:22:00,
2013-02-10 10:32:00,71.0,56.0,30.29,East,91,11.0,15.0,57,-99.99,,,-99.99,,2013-02-10 15:32:00,
2013-02-10 10:42:00,72.0,55.0,30.29,East,98,11.0,17.0,54,-99.99,,,-99.99,,2013-02-10 15:42:00,
2013-02-10 10:52:00,72.0,55.0,30.29,East,98,11.0,17.0,54,-99.99,,,-99.99,,2013-02-10 15:52:00,
2013-02-10 11:02:00,72.0,55.0,30.29,ESE,104,12.0,18.0,54,-99.99,,,-99.99,,2013-02-10 16:02:00,
2013-02-10 11:12:00,74.0,56.0,30.29,ESE,105,12.0,18.0,53,-99.99,,,-99.99,,2013-02-10 16:12:00,
2013-02-10 11:22:00,74.0,56.0,30.29,ESE,105,12.0,18.0,53,-99.99,,,-99.99,,2013-02-10 16:22:00,
2013-02-10 11:32:00,74.0,56.0,30.30,ESE,112,11.0,16.0,52,-99.99,,,-99.99,,2013-02-10 16:32:00,
2013-02-10 11:42:00,74.0,56.0,30.30,East,99,10.0,14.0,52,-99.99,,,-99.99,,2013-02-10 16:42:00,
2013-02-10 11:52:00,74.0,56.0,30.30,East,99,10.0,14.0,52,-99.99,,,-99.99,,2013-02-10 16:52:00,
2013-02-10 12:02:00,75.0,56.0,30.29,SE,124,8.0,13.0,51,-99.99,,,-99.99,,2013-02-10 17:02:00,
2013-02-10 12:12:00,75.0,56.0,30.28,ESE,115,9.0,14.0,51,-99.99,,,-99.99,,2013-02-10 17:12:00,
2013-02-10 12:22:00,75.0,56.0,30.28,ESE,115,9.0,14.0,51,-99.99,,,-99.99,,2013-02-10 17:22:00,
2013-02-10 12:32:00,75.0,56.0,30.28,ESE,115,9.0,14.0,51,-99.99,,,-99.99,,2013-02-10 17:32:00,
2013-02-10 12:42:00,75.0,56.0,30.27,ESE,106,9.0,14.0,51,-99.99,,,-99.99,,2013-02-10 17:42:00,
2013-02-10 12:53:00,75.0,56.0,30.27,ESE,106,9.0,14.0,51,-99.99,,,-99.99,,2013-02-10 17:53:00,
2013-02-10 13:02:00,75.0,56.0,30.26,SE,130,10.0,17.0,51,-99.99,,,-99.99,,2013-02-10 18:02:00,
2013-02-10 13:12:00,76.0,56.0,30.26,SE,127,10.0,15.0,50,-99.99,,,-99.99,,2013-02-10 18:12:00,
2013-02-10 13:22:00,76.0,56.0,30.26,SE,127,10.0,15.0,50,-99.99,,,-99.99,,2013-02-10 18:22:00,
2013-02-10 13:32:00,78.0,55.0,30.25,SE,135,10.0,15.0,46,-99.99,,,-99.99,,2013-02-10 18:32:00,
2013-02-10 13:42:00,78.0,56.0,30.24,ESE,122,9.0,16.0,46,-99.99,,,-99.99,,2013-02-10 18:42:00,
2013-02-10 13:52:00,78.0,56.0,30.24,ESE,122,9.0,16.0,46,-99.99,,,-99.99,,2013-02-10 18:52:00,
2013-02-10 14:02:00,77.0,55.0,30.23,SE,125,9.0,14.0,46,-99.99,,,-99.99,,2013-02-10 19:02:00,
2013-02-10 14:12:00,77.0,55.0,30.22,SE,127,10.0,15.0,46,-99.99,,,-99.99,,2013-02-10 19:12:00,
2013-02-10 14:22:00,77.0,55.0,30.22,SE,127,10.0,15.0,46,-99.99,,,-99.99,,2013-02-10 19:22:00,
2013-02-10 14:32:00,78.0,55.0,30.22,SE,125,11.0,19.0,44,-99.99,,,-99.99,,2013-02-10 19:32:00,
2013-02-10 14:42:00,78.0,55.0,30.21,SE,124,10.0,18.0,46,-99.99,,,-99.99,,2013-02-10 19:42:00,
2013-02-10 14:52:00,78.0,55.0,30.21,SE,124,10.0,18.0,46,-99.99,,,-99.99,,2013-02-10 19:52:00,
2013-02-10 15:02:00,78.0,56.0,30.21,SE,126,11.0,17.0,45,-99.99,,,-99.99,,2013-02-10 20:02:00,
2013-02-10 15:11:00,77.0,56.0,30.21,SE,131,10.0,15.0,47,-99.99,,,-99.99,,2013-02-10 20:11:00,
2013-02-10 15:22:00,77.0,56.0,30.21,SE,131,10.0,15.0,47,-99.99,,,-99.99,,2013-02-10 20:22:00,
2013-02-10 15:32:00,77.0,56.0,30.21,SE,131,10.0,15.0,47,-99.99,,,-99.99,,2013-02-10 20:32:00,
2013-02-10 15:42:00,77.0,56.0,30.20,SE,126,10.0,16.0,47,-99.99,,,-99.99,,2013-02-10 20:42:00,
2013-02-10 15:52:00,77.0,56.0,30.20,SE,126,10.0,16.0,47,-99.99,,,-99.99,,2013-02-10 20:52:00,
2013-02-10 16:02:00,76.0,56.0,30.20,ESE,118,11.0,17.0,49,-99.99,,,-99.99,,2013-02-10 21:02:00,
2013-02-10 16:11:00,77.0,56.0,30.20,ESE,123,10.0,15.0,47,-99.99,,,-99.99,,2013-02-10 21:11:00,
2013-02-10 16:22:00,77.0,56.0,30.20,ESE,123,10.0,15.0,47,-99.99,,,-99.99,,2013-02-10 21:22:00,
2013-02-10 16:32:00,77.0,56.0,30.20,ESE,120,12.0,21.0,48,-99.99,,,-99.99,,2013-02-10 21:32:00,
2013-02-10 16:42:00,76.0,56.0,30.20,SE,126,12.0,19.0,48,-99.99,,,-99.99,,2013-02-10 21:42:00,
2013-02-10 16:52:00,76.0,56.0,30.20,SE,126,12.0,19.0,48,-99.99,,,-99.99,,2013-02-10 21:52:00,
2013-02-10 17:02:00,76.0,56.0,30.20,SE,126,11.0,17.0,49,-99.99,,,-99.99,,2013-02-10 22:02:00,
2013-02-10 17:12:00,75.0,56.0,30.20,ESE,123,11.0,16.0,50,-99.99,,,-99.99,,2013-02-10 22:12:00,
2013-02-10 17:22:00,75.0,56.0,30.20,ESE,123,11.0,16.0,50,-99.99,,,-99.99,,2013-02-10 22:22:00,
2013-02-10 17:32:00,75.0,56.0,30.20,SE,129,13.0,19.0,51,-99.99,,,-99.99,,2013-02-10 22:32:00,
2013-02-10 17:42:00,74.0,56.0,30.20,ESE,123,12.0,17.0,53,-99.99,,,-99.99,,2013-02-10 22:42:00,
2013-02-10 17:53:00,74.0,56.0,30.20,ESE,123,12.0,17.0,53,-99.99,,,-99.99,,2013-02-10 22:53:00,
2013-02-10 18:02:00,73.0,56.0,30.20,ESE,122,12.0,19.0,54,-99.99,,,-99.99,,2013-02-10 23:02:00,
2013-02-10 18:12:00,72.0,56.0,30.21,ESE,122,11.0,17.0,56,-99.99,,,-99.99,,2013-02-10 23:12:00,
2013-02-10 18:22:00,72.0,56.0,30.21,ESE,122,11.0,17.0,56,-99.99,,,-99.99,,2013-02-10 23:22:00,
2013-02-10 18:32:00,72.0,56.0,30.21,ESE,122,11.0,17.0,56,-99.99,,,-99.99,,2013-02-10 23:32:00,
2013-02-10 18:42:00,70.0,56.0,30.21,ESE,118,9.0,14.0,60,-99.99,,,-99.99,,2013-02-10 23:42:00,
2013-02-10 18:52:00,70.0,56.0,30.21,ESE,118,9.0,14.0,60,-99.99,,,-99.99,,2013-02-10 23:52:00,
2013-02-10 19:02:00,69.0,56.0,30.21,ESE,110,8.0,12.0,61,-99.99,,,-99.99,,2013-02-11 00:02:00,
2013-02-10 19:11:00,68.0,55.0,30.21,ESE,103,7.0,10.0,63,-99.99,,,-99.99,,2013-02-11 00:11:00,
2013-02-10 19:22:00,68.0,55.0,30.21,ESE,103,7.0,10.0,63,-99.99,,,-99.99,,2013-02-11 00:22:00,
2013-02-10 19:32:00,67.0,55.0,30.22,East,100,6.0,9.0,66,-99.99,,,-99.99,,2013-02-11 00:32:00,
2013-02-10 19:42:00,66.0,55.0,30.22,ESE,106,6.0,10.0,68,-99.99,,,-99.99,,2013-02-11 00:42:00,
2013-02-10 19:52:00,66.0,55.0,30.22,ESE,106,6.0,10.0,68,-99.99,,,-99.99,,2013-02-11 00:52:00,
2013-02-10 20:01:00,66.0,56.0,30.22,ESE,106,6.0,10.0,69,-99.99,,,-99.99,,2013-02-11 01:01:00,
2013-02-10 20:11:00,65.0,56.0,30.22,ESE,107,7.0,10.0,70,-99.99,,,-99.99,,2013-02-11 01:11:00,
2013-02-10 20:21:00,65.0,56.0,30.22,ESE,107,7.0,10.0,70,-99.99,,,-99.99,,2013-02-11 01:21:00,
2013-02-10 20:32:00,65.0,55.0,30.23,ESE,105,6.0,9.0,71,-99.99,,,-99.99,,2013-02-11 01:32:00,
2013-02-10 20:42:00,64.0,55.0,30.23,ESE,102,5.0,7.0,73,-99.99,,,-99.99,,2013-02-11 01:42:00,
2013-02-10 20:52:00,64.0,55.0,30.23,ESE,102,5.0,7.0,73,-99.99,,,-99.99,,2013-02-11 01:52:00,
2013-02-10 21:01:00,63.0,55.0,30.23,East,97,5.0,7.0,75,-99.99,,,-99.99,,2013-02-11 02:01:00,
2013-02-10 21:11:00,62.0,55.0,30.23,East,98,5.0,7.0,76,-99.99,,,-99.99,,2013-02-11 02:11:00,
2013-02-10 21:21:00,62.0,55.0,30.23,East,98,5.0,7.0,76,-99.99,,,-99.99,,2013-02-11 02:21:00,
2013-02-10 21:32:00,62.0,55.0,30.23,East,98,5.0,7.0,76,-99.99,,,-99.99,,2013-02-11 02:32:00,
2013-02-10 21:42:00,61.0,55.0,30.23,ESE,109,4.0,7.0,78,-99.99,,,-99.99,,2013-02-11 02:42:00,
2013-02-10 21:52:00,61.0,54.0,30.23,ESE,112,4.0,6.0,79,-99.99,,,-99.99,,2013-02-11 02:52:00,
2013-02-10 22:02:00,61.0,54.0,30.23,ESE,112,4.0,6.0,79,-99.99,,,-99.99,,2013-02-11 03:02:00,
2013-02-10 22:11:00,61.0,55.0,30.23,ESE,115,5.0,7.0,80,-99.99,,,-99.99,,2013-02-11 03:11:00,
2013-02-10 22:21:00,61.0,55.0,30.23,ESE,115,5.0,7.0,80,-99.99,,,-99.99,,2013-02-11 03:21:00,
2013-02-10 22:32:00,61.0,55.0,30.23,ESE,112,4.0,6.0,81,-99.99,,,-99.99,,2013-02-11 03:32:00,
2013-02-10 22:42:00,60.0,55.0,30.23,ESE,109,3.0,4.0,81,-99.99,,,-99.99,,2013-02-11 03:42:00,
2013-02-10 22:52:00,60.0,55.0,30.23,ESE,109,3.0,4.0,81,-99.99,,,-99.99,,2013-02-11 03:52:00,
2013-02-10 23:02:00,60.0,55.0,30.23,ESE,106,4.0,6.0,82,-99.99,,,-99.99,,2013-02-11 04:02:00,
2013-02-10 23:11:00,59.0,54.0,30.22,ESE,112,5.0,6.0,83,-99.99,,,-99.99,,2013-02-11 04:11:00,
2013-02-10 23:22:00,59.0,54.0,30.22,ESE,112,5.0,6.0,83,-99.99,,,-99.99,,2013-02-11 04:22:00,
2013-02-10 23:32:00,59.0,54.0,30.22,ESE,109,4.0,6.0,84,-99.99,,,-99.99,,2013-02-11 04:32:00,
2013-02-10 23:42:00,59.0,54.0,30.22,ESE,112,5.0,6.0,84,-99.99,,,-99.99,,2013-02-11 04:42:00,
2013-02-10 23:52:00,59.0,54.0,30.22,ESE,112,5.0,6.0,84,-99.99,,,-99.99,,2013-02-11 04:52:00,